"Pseudo-MPEC" for P10TRNl

Created 2019 Nov 13 9:07:08 UT using Find_Orb

Click here for an explanation of pseudo-MPECs

 
 Astrometry: 
     P10TRNl  C2019 10 14uTjfY!dN1nc1MePpM(1\8=-dMnw]Jrln8Kn:5v%]_jeJ.ot[x+=jF52
     P10TRNl  C2019 10 14%UOM,gQXYEp^mdMiid(Z),BS$QeuugTP=[6^2nqW?/J)\mMua^')F52
     P10TRNl  C2019 10 147-ahr7c:knWM*o9SfqruuU1i(1dCoFM,ShN%l@K`QRDFkwfIa8%LF52
     P10TRNl  C2019 10 14[a]y+-E2mSvYhSQ(*)L*t$J7M1),]nt=y[c1)pe%Okm\vO@%U$TYF52
     P10TRNl  C2019 10 26NEa_(mvFaJc:,%5vkn%6;a3j[lE_FY3k@LsgHs)M7w3=WnHpM81iF51
     P10TRNl  C2019 10 26KUJT03Cd-J]Or1XyHU2?2434^;'I*,$T$YCF-.fD]8Uo8#$$Ckm0F51
     P10TRNl  C2019 10 26%QK`!UmYdq8\:9x!GF^1US#YW'AstrometryVredacted;HNf(lhF51
     P10TRNl  C2019 11 01[G5:e--!T#Gs#_^X8akoBGrqhQZBf[XZ!?g#tAWwB*T'h3?OXiLaF51
     P10TRNl  C2019 11 01CH;N(]:cot4A/]y`)o-L\'!:pM@1JhLxJc8hclickYg,G)NV@'qdF51
     P10TRNl  C2019 11 01f.6Hilb_s]JD%PBP95rLV$t9,*YgUZRABBC14`J.CtR$NR==$Ds)F51
     P10TRNl ^C2019 11 04r2iFW2/SHQQ3@7]NZ1Z\5bi,m*SP@@YfwkF`xHkO[1fr_]s7r\ZX695
     P10TRNl ^C2019 11 04'coXeiRxU)i!ihI4q^F^V_89Y)e;cx1E;Wp/Y%lH[5j*IbCoS/8G695
     P10TRNl ^C2019 11 04hB2]_dn^%N;`x$?$pg__XC/tfXt@g2g/.SlH:,wiH]gEwD^6V(EP695
     P10TRNl  C2019 11 09HXJBy6c/yqUGipSf9UJ\3$dIZFIdI'hk%Ui$E%o;X[Th_4$fn7jYF52
     P10TRNl  C2019 11 09:%hereY=C(D2N%k]nocmtX.for,9NyQReEC/X8h8U2tTDHY5+'^nF52
     P10TRNl  C2019 11 09u2L]r@G?+S^*wG=56/D)x,1i7mM`B9f%e,Y2%fcexplanation#=F52

Station data:
(695) Kitt Peak  (N31.958398 W111.594670)  US/Arizona.
(F51) Pan-STARRS 1, Haleakala  (N20.707235 W156.255910)  US/Hawaii.
   Observers N. Primak, A. Schultz, S. Watters, J. Thiel, T. Goggia. Measurer
   PS1 Science Consortium. 1.8-m Ritchey-Chrétien + CCD.
(F52) Pan-STARRS 2, Haleakala  (N20.707384 W156.255910)  US/Hawaii. 1.8-m
   Ritchey-Chrétien + CCD.

Orbital elements:  P10TRNl
   Perihelion 2018 Apr 21.601255 +/- 2.3 TT = 14:25:48 (JD 2458230.101255)
Epoch 2019 Nov  9.0 TT = JDT 2458796.5   Ju: 0.7695           AutoNEOCP
M  15.81239648 +/- 0.08             (J2000 ecliptic)
n   0.02791742 +/- 0.000202         Peri.   19.42218 +/- 0.31
a  10.7618212 +/- 0.0516            Node   344.80476 +/- 0.039
e   0.4758668 +/- 0.00357           Incl.   24.58513 +/- 0.009
P  35.30                   H 14.0   G  0.15   U  7.1  
q 5.64062706 +/- 0.0112    Q 15.8830154 +/- 0.114
From 16 observations 2019 Oct. 14-Nov. 9; mean residual 0".18
Residuals in arcseconds: 
191014 F52  .12-  .00     191026 F51  .01+  .01-    191104 695  .11-  .19+    
191014 F52  .08-  .23+    191101 F51  .00   .12-    191109 F52  .29+  .12-    
191014 F52  .02-  .13+    191101 F51  .01+  .11-    191109 F52  .12+  .41-    
191014 F52  .21+  .26-    191101 F51  .04+  .08-    191109 F52  .27-  .16+    
191026 F51  .11+  .05-    191104 695  .04-  .34+    
191026 F51  .02-  .24-    191104 695  .13-  .36+    

Ephemerides (geocentric):
Date (UTC) HH   RA              Dec         delta   r     elong  mag " sig PA
---- -- -- --  -------------   -----------  ------ ------ -----  --- ---- ---
2019 11 13 09  02 29 22.265   +42 46 55.43  5.3930 6.2940 153.5 22.0 .327 174
2019 11 13 10  02 29 20.914   +42 46 51.53  5.3931 6.2941 153.5 22.0 .329 174
2019 11 13 11  02 29 19.562   +42 46 47.63  5.3932 6.2942 153.5 22.0 .331 174
2019 11 13 12  02 29 18.211   +42 46 43.71  5.3933 6.2943 153.5 22.0 .333 174
2019 11 13 13  02 29 16.861   +42 46 39.79  5.3934 6.2944 153.5 22.0 .335 174
2019 11 13 14  02 29 15.511   +42 46 35.85  5.3935 6.2945 153.5 22.0 .337 174
2019 11 13 15  02 29 14.161   +42 46 31.91  5.3937 6.2946 153.5 22.0 .339 174
2019 11 13 16  02 29 12.812   +42 46 27.96  5.3938 6.2947 153.5 22.0 .342 174
2019 11 13 17  02 29 11.463   +42 46 24.00  5.3939 6.2947 153.5 22.0 .344 174
2019 11 13 18  02 29 10.115   +42 46 20.03  5.3940 6.2948 153.5 22.0 .346 173
2019 11 13 19  02 29 08.767   +42 46 16.05  5.3941 6.2949 153.5 22.0 .348 173
2019 11 13 20  02 29 07.419   +42 46 12.06  5.3942 6.2950 153.5 22.0 .350 173
2019 11 13 21  02 29 06.072   +42 46 08.07  5.3944 6.2951 153.5 22.0 .352 173
2019 11 13 22  02 29 04.726   +42 46 04.06  5.3945 6.2952 153.4 22.0 .354 173
2019 11 13 23  02 29 03.379   +42 46 00.05  5.3946 6.2953 153.4 22.0 .357 173
2019 11 14 00  02 29 02.034   +42 45 56.03  5.3947 6.2954 153.4 22.0 .359 173
2019 11 14 01  02 29 00.688   +42 45 51.99  5.3948 6.2954 153.4 22.0 .361 173
2019 11 14 02  02 28 59.343   +42 45 47.95  5.3949 6.2955 153.4 22.0 .363 173
2019 11 14 03  02 28 57.999   +42 45 43.90  5.3951 6.2956 153.4 22.0 .365 173
2019 11 14 04  02 28 56.655   +42 45 39.84  5.3952 6.2957 153.4 22.0 .367 173
2019 11 14 05  02 28 55.312   +42 45 35.78  5.3953 6.2958 153.4 22.0 .370 173
2019 11 14 06  02 28 53.969   +42 45 31.70  5.3954 6.2959 153.4 22.0 .372 173
2019 11 14 07  02 28 52.626   +42 45 27.62  5.3955 6.2960 153.4 22.0 .374 173
2019 11 14 08  02 28 51.284   +42 45 23.52  5.3957 6.2960 153.4 22.0 .376 173
2019 11 14 09  02 28 49.942   +42 45 19.42  5.3958 6.2961 153.4 22.0 .378 173
2019 11 14 10  02 28 48.601   +42 45 15.31  5.3959 6.2962 153.4 22.0 .381 173
2019 11 14 11  02 28 47.260   +42 45 11.19  5.3960 6.2963 153.4 22.0 .383 173
2019 11 14 12  02 28 45.920   +42 45 07.06  5.3962 6.2964 153.4 22.0 .385 173
2019 11 14 13  02 28 44.580   +42 45 02.92  5.3963 6.2965 153.4 22.0 .387 173
2019 11 14 14  02 28 43.240   +42 44 58.78  5.3964 6.2966 153.4 22.0 .390 173
2019 11 14 15  02 28 41.901   +42 44 54.62  5.3965 6.2967 153.4 22.0 .392 173
2019 11 14 16  02 28 40.563   +42 44 50.46  5.3967 6.2967 153.4 22.0 .394 173
2019 11 14 17  02 28 39.225   +42 44 46.28  5.3968 6.2968 153.4 22.0 .396 172
2019 11 14 18  02 28 37.887   +42 44 42.10  5.3969 6.2969 153.4 22.0 .398 172
2019 11 14 19  02 28 36.550   +42 44 37.91  5.3970 6.2970 153.4 22.0 .401 172
2019 11 14 20  02 28 35.214   +42 44 33.71  5.3972 6.2971 153.4 22.0 .403 172
2019 11 14 21  02 28 33.878   +42 44 29.50  5.3973 6.2972 153.4 22.0 .405 172
2019 11 14 22  02 28 32.542   +42 44 25.29  5.3974 6.2973 153.4 22.0 .407 172
2019 11 14 23  02 28 31.207   +42 44 21.06  5.3975 6.2974 153.3 22.0 .410 172
2019 11 15 00  02 28 29.872   +42 44 16.83  5.3977 6.2974 153.3 22.0 .412 172
2019 11 15 01  02 28 28.538   +42 44 12.58  5.3978 6.2975 153.3 22.0 .414 172
2019 11 15 02  02 28 27.204   +42 44 08.33  5.3979 6.2976 153.3 22.0 .417 172
2019 11 15 03  02 28 25.871   +42 44 04.07  5.3981 6.2977 153.3 22.0 .419 172
2019 11 15 04  02 28 24.538   +42 43 59.80  5.3982 6.2978 153.3 22.0 .421 172
2019 11 15 05  02 28 23.206   +42 43 55.53  5.3983 6.2979 153.3 22.0 .423 172
2019 11 15 06  02 28 21.874   +42 43 51.24  5.3985 6.2980 153.3 22.0 .426 172
2019 11 15 07  02 28 20.543   +42 43 46.94  5.3986 6.2981 153.3 22.0 .428 172
2019 11 15 08  02 28 19.212   +42 43 42.64  5.3987 6.2981 153.3 22.0 .430 172